Tanto divertimento, senza nessun impegno!

Il nostro simulatore di Sci attira l’attenzione e la curiosità dovunque lo mettiate: un evento, una fiera, un locale. Con il nostro Sci Simulator si può sciare tutto l’anno a qualsiasi evento, per non farvi più dimenticare dai vostri visitatori.

Venite a provarlo senza nessun obbligo presso i nostri uffici:

1° Epson Ski World Cup

RANKNICKNAMETEMPODIFF.
1Micky0:50.3180:00.000
2Isacco0:51.9890:01.671
3Isacco0:55.0640:04.746
4Joy0:57.6610:07.343
5Joy0:59.3570:09.039
6Simone31:00.6310:10.313
7Alan1:00.7140:10.396
8Simone41:02.2720:11.954
9Simone51:04.2070:13.889
10Simone21:05.2230:14.905
11Simone61:06.8040:16.486
12Bone51:07.5270:17.209
13Bone41:12.3090:21.991
14fghf1:13.0120:22.694
15Samuele1:13.8750:23.557
16Stefano1:16.4260:26.108
17Stefano Milan1:17.0460:26.728
18Giancarlo1:17.3250:27.007
19Roberto1:18.1410:27.823
20Vale1:19.6050:29.287
21Bone61:22.8290:32.511
22Giorgio Inter1:23.0710:32.753
23Massimo1:25.5550:35.237
24Simone1:26.0340:35.716
25Stefano Milan1:26.6040:36.286
26Marco1:27.8120:37.494
27Giorgio1:27.8490:37.531
28Giorgio1:29.3410:39.023
29Mirko1:31.2950:40.977
30Daniel1:31.7170:41.399
31Giorgio Inter1:32.4760:42.158
32Bone21:33.3490:43.031
33Giorgio1:33.4790:43.161
34Valentina1:35.0050:44.687
35Ale1:35.7300:45.412
36Angelo1:36.1100:45.792
37Andrea1:37.5820:47.264
38Simone1:37.9480:47.630
39Claudio1:37.9910:47.673
40Stefano1:38.6270:48.309
41Joy1:39.3200:49.002
42Ak1:39.9910:49.673
43Massimo1:40.2760:49.958
44Barbara1:41.2280:50.910
45Stefano Milan1:43.0200:52.702
46Marco1:43.8550:53.537
47Giorgio21:47.4720:57.154
48Daniele1:47.7630:57.445
49Anto1:47.8520:57.534
50Anto1:48.0590:57.741
51Nicola1:49.4100:59.092
52Fausto1:49.9490:59.631
53Fabrizio1:50.0450:59.727
54Marco1:50.8581:00.540
55Bone21:51.0081:00.690
56Ludovico1:51.5841:01.266
57Alessandro1:52.6901:02.372
58Cristina1:56.6711:06.353
59Marco1:57.2671:06.949
60Domenico2:00.4971:10.179
61Mauro2:01.5401:11.222
62Giovanni2:04.3381:14.020
63Roberto2:05.3521:15.034
64Fulvio2:06.2371:15.919
65Stefano2:06.9911:16.673
66Bone2:10.0991:19.781
67Marcello2:10.7251:20.407
68Egy2:10.8271:20.509
69Milan2:11.8981:21.580
70Egy2:17.1381:26.820
71Egy2:28.3931:38.075
72Federica2:41.9951:51.677
73Ilaria2:58.1942:07.876
74Egy3:05.6452:15.327
75Cristiano3:13.1242:22.806

Il nostro SCI SIMULATOR SKILIKE è stato protagonista all’EPSON VISUAL VILLAGE che si è tenuto quest’anno allo Spazio MIL di Sesto San Giovanni (Milano) il giorno 31 ottobre 2017.
Qui a fianco potete vedere la classifica della competizione e scoprire come vi siete piazzati!!

Coinvolgili in un evento indimenticabile

Organizza il tuo evento di Natale ,o un concorso tra i dipendenti, una fiera, con l’attrazione più divertente dell’anno: lo SCI SIMULATOR.
Per i professionisti o per chi non è mai andato su una pista da sci, arriva lo Sci Indoor . Vi coinvolgerà in una esperienza full immersive con uno maxischermo di 230×150 cm.
Senza scarponi e senza tuta, un’attrazione per rendere il tuo evento invernale… indimenticabile!

AGGIUNGI UNA APP
Collega lo Slalom Indoor a una app o una web app per coinvolgere tutti i partecipanti nella gara di slalom!

PROFILA I TUOI OSPITI
Clienti in arrivo? Targettizzali al meglio con l’iscrizione al gioco e arricchisci il tuo database.

FIDELIZZA I GIOCATORI
La classifica può essere facilmente aggiunta al portale della tua azienda attraendo così anche i giocatori che potranno giocare online.

CREA UN PRECEDENTE
Con lo slalom indoor potrai creare nuovi movimenti sui canali social. Pronto per aumentare il traffico di persone sul tuo wall?

  • I authorize the processing of my personal data for sending the information I request here

    I authorize the processing of my personal data for sending newsletters or promotional material concerning the information I request and all D.s.e. services or products

    To read the complete information click here


  • Autorizzo il trattamento dei miei dati personali per l’invio delle informazioni che qui richiedo

    Autorizzo il trattamento dei miei dati personali per l’invio di newsletter o materiale promozionale inerente le informazioni che qui richiedo e tutti i servizi o prodotti di D.s.e.

    Per leggere l’informativa completa clicca qui


  • Per far funzionare bene questo sito, a volte installiamo sul tuo dispositivo dei piccoli file di dati che si chiamano "cookies". Anche la maggior parte dei grandi siti fanno lo stesso.